#timestamp,LO_Frequency,Hit,StdDev 
1620787695.1,286047020.4,P
1620787715.9,286047017.9,P
1620787735.7,286047020.1,P
1620787755.6,286047017.8,Y
1620787775.4,286047000.8,P
1620787795.2,286047000.0,N
1620787815.1,286047002.4,N
1620787816.0,286047002.4,N
1620787835.8,286046999.7,N
1620787855.6,286047002.5,N
1620787875.5,286047001.7,N
1620787895.3,286047004.0,N
1620787915.2,286047004.1,N
1620787935.9,286047003.7,N
1620787955.7,286047004.4,N
1620787975.6,286047003.8,N
1620787995.4,286047003.6,N
1620788015.2,286047005.8,N
1620788035.1,286047003.4,N
1620788036.0,286047003.4,N
1620788055.8,286047003.6,N
1620788075.7,286047003.9,N
1620788095.5,286047003.6,N
1620788115.3,286047005.7,N
1620788135.2,286047006.0,N
1620788155.0,286047003.6,N
1620788155.9,286047003.6,N
1620788175.8,286047004.5,N
1620788195.6,286047007.3,N
1620788215.4,286047007.4,N
1620788235.3,286047005.2,N
1620788255.1,286047004.7,N
1620788275.8,286047007.5,N
1620788295.7,286047004.9,N
1620788315.5,286047005.2,N
1620788335.4,286047004.5,N
1620788355.2,286047006.2,Y
1620788375.0,286047003.6,P
1620788375.9,286047003.6,P
1620788395.8,286047003.6,P
